| time (UTC) | temp F | wind direction | speed MPH | gust MPH | rain 1hr in | rain 24hr in | rain mn in | humidity % | barometer mb |
| 20260906000501 | 97 | 101 | 7.0 | 10.0 | 0.00 | 0.00 | 0.00 | 38 | 1010.6 |
| 20260905235447 | 97 | 101 | 5.0 | 10.0 | 0.00 | 0.00 | 0.00 | 38 | 1010.7 |
| 20260905234445 | 98 | 91 | 3.0 | 6.0 | 0.00 | 0.00 | 0.00 | 38 | 1010.6 |
| 20260905232447 | 98 | 95 | 4.0 | 7.0 | 0.00 | 0.00 | 0.00 | 36 | 1010.6 |
| 20260905231545 | 99 | 107 | 5.0 | 8.0 | 0.00 | 0.00 | 0.00 | 37 | 1010.5 |
| 20260905230600 | 99 | 93 | 6.0 | 9.0 | 0.00 | 0.00 | 0.00 | 36 | 1010.5 |
| 20260905225647 | 99 | 22 | 4.0 | 6.0 | 0.00 | 0.00 | 0.00 | 36 | 1010.5 |
| 20260905224646 | 99 | 90 | 3.0 | 7.0 | 0.00 | 0.00 | 0.00 | 35 | 1010.4 |
| 20260905223647 | 100 | 89 | 5.0 | 9.0 | 0.00 | 0.00 | 0.00 | 35 | 1010.4 |
| 20260905222646 | 101 | 148 | 8.0 | 10.0 | 0.00 | 0.00 | 0.00 | 35 | 1010.5 |
| 20260905221744 | 101 | 173 | 6.0 | 9.0 | 0.00 | 0.00 | 0.00 | 35 | 1010.5 |
| 20260905220745 | 101 | 138 | 2.0 | 5.0 | 0.00 | 0.00 | 0.00 | 35 | 1010.6 |
| 20260905215745 | 100 | 135 | 2.0 | 5.0 | 0.00 | 0.00 | 0.00 | 36 | 1010.7 |
| 20260905214802 | 100 | 159 | 7.0 | 11.0 | 0.00 | 0.00 | 0.00 | 35 | 1010.8 |
| 20260905213845 | 101 | 160 | 5.0 | 10.0 | 0.00 | 0.00 | 0.00 | 36 | 1010.8 |
| 20260905211847 | 98 | 146 | 4.0 | 7.0 | 0.00 | 0.00 | 0.00 | 36 | 1011.1 |
| 20260905210900 | 97 | 150 | 2.0 | 8.0 | 0.00 | 0.00 | 0.00 | 37 | 1011.4 |
| 20260905205944 | 97 | 41 | 6.0 | 9.0 | 0.00 | 0.00 | 0.00 | 37 | 1011.2 |
| 20260905204946 | 97 | 144 | 6.0 | 10.0 | 0.00 | 0.00 | 0.00 | 38 | 1011.6 |
| 20260905203946 | 97 | 91 | 5.0 | 7.0 | 0.00 | 0.00 | 0.00 | 39 | 1011.6 |
| 20260905201044 | 97 | 135 | 0.0 | 0.0 | 0.00 | 0.00 | 0.00 | 38 | 1012.0 |
| 20260905195144 | 96 | 85 | 5.0 | 7.0 | 0.00 | 0.00 | 0.00 | 39 | 1012.4 |
| 20260905194147 | 96 | 69 | 5.0 | 7.0 | 0.00 | 0.00 | 0.00 | 39 | 1012.4 |
| 20260905193144 | 98 | 80 | 5.0 | 8.0 | 0.00 | 0.00 | 0.00 | 37 | 1012.6 |
| 20260905192146 | 98 | 157 | 0.0 | 2.0 | 0.00 | 0.00 | 0.00 | 38 | 1012.9 |
| 20260905191146 | 98 | 173 | 4.0 | 6.0 | 0.00 | 0.00 | 0.00 | 39 | 1013.1 |
| 20260905190146 | 97 | 152 | 7.0 | 11.0 | 0.00 | 0.00 | 0.00 | 39 | 1013.2 |
| 20260905185144 | 97 | 122 | 1.0 | 3.0 | 0.00 | 0.00 | 0.00 | 40 | 1013.3 |
| 20260905184244 | 97 | 109 | 3.0 | 6.0 | 0.00 | 0.00 | 0.00 | 40 | 1013.4 |
| 20260905182344 | 95 | 150 | 4.0 | 8.0 | 0.00 | 0.00 | 0.00 | 42 | 1013.7 |
| 20260905181346 | 95 | 160 | 10.0 | 12.0 | 0.00 | 0.00 | 0.00 | 42 | 1013.9 |
| 20260905180404 | 94 | 129 | 4.0 | 7.0 | 0.00 | 0.00 | 0.00 | 42 | 1014.1 |
| 20260905175400 | 95 | 145 | 5.0 | 9.0 | 0.00 | 0.00 | 0.00 | 42 | 1014.2 |
| 20260905174445 | 94 | 154 | 8.0 | 11.0 | 0.00 | 0.00 | 0.00 | 41 | 1014.4 |
| 20260905173502 | 95 | 91 | 2.0 | 4.0 | 0.00 | 0.00 | 0.00 | 42 | 1014.5 |
| 20260905172459 | 95 | 157 | 0.0 | 0.0 | 0.00 | 0.00 | 0.00 | 42 | 1014.6 |
| 20260905171446 | 94 | 135 | 6.0 | 11.0 | 0.00 | 0.00 | 0.00 | 43 | 1014.6 |
| 20260905170544 | 94 | 151 | 4.0 | 8.0 | 0.00 | 0.00 | 0.00 | 44 | 1014.7 |
| 20260905165545 | 94 | 141 | 3.0 | 5.0 | 0.00 | 0.00 | 0.00 | 45 | 1014.8 |
| 20260905164544 | 93 | 100 | 4.0 | 6.0 | 0.00 | 0.00 | 0.00 | 44 | 1014.6 |
| 20260905163546 | 94 | 157 | 7.0 | 8.0 | 0.00 | 0.00 | 0.00 | 44 | 1014.7 |
| 20260905162545 | 95 | 112 | 4.0 | 6.0 | 0.00 | 0.00 | 0.00 | 45 | 1014.7 |
| 20260905161601 | 94 | 111 | 0.0 | 1.0 | 0.00 | 0.00 | 0.00 | 46 | 1014.7 |
| 20260905160647 | 94 | 160 | 4.0 | 7.0 | 0.00 | 0.00 | 0.00 | 47 | 1014.7 |
| 20260905155644 | 94 | 16 | 2.0 | 4.0 | 0.00 | 0.00 | 0.00 | 47 | 1014.6 |
| 20260905154744 | 93 | 156 | 3.0 | 6.0 | 0.00 | 0.00 | 0.00 | 49 | 1014.8 |
| 20260905153746 | 91 | 190 | 2.0 | 6.0 | 0.00 | 0.00 | 0.00 | 50 | 1014.6 |
| 20260905151845 | 91 | 168 | 1.0 | 3.0 | 0.00 | 0.00 | 0.00 | 53 | 1014.6 |
| 20260905150845 | 90 | 218 | 2.0 | 5.0 | 0.00 | 0.00 | 0.00 | 54 | 1014.6 |
| 20260905145845 | 89 | 218 | 3.0 | 6.0 | 0.00 | 0.00 | 0.00 | 58 | 1014.7 |
| 20260905144847 | 89 | 222 | 4.0 | 7.0 | 0.00 | 0.00 | 0.00 | 59 | 1014.6 |
| 20260905143844 | 87 | 218 | 0.0 | 2.0 | 0.00 | 0.00 | 0.00 | 62 | 1014.6 |
| 20260905142847 | 86 | 171 | 3.0 | 5.0 | 0.00 | 0.00 | 0.00 | 65 | 1014.6 |
| 20260905141845 | 84 | 225 | 1.0 | 3.0 | 0.00 | 0.00 | 0.00 | 68 | 1014.6 |
| 20260905140843 | 84 | 247 | 4.0 | 7.0 | 0.00 | 0.00 | 0.00 | 70 | 1014.7 |
| 20260905135845 | 82 | 235 | 0.0 | 1.0 | 0.00 | 0.00 | 0.00 | 73 | 1014.6 |
| 20260905134944 | 82 | 240 | 4.0 | 5.0 | 0.00 | 0.00 | 0.00 | 73 | 1014.6 |
| 20260905133945 | 82 | 232 | 2.0 | 4.0 | 0.00 | 0.00 | 0.00 | 73 | 1014.6 |
| 20260905133043 | 82 | 157 | 0.0 | 0.0 | 0.00 | 0.00 | 0.00 | 75 | 1014.6 |
| 20260905132044 | 80 | 157 | 0.0 | 2.0 | 0.00 | 0.00 | 0.00 | 79 | 1014.3 |
| 20260905131048 | 78 | 157 | 0.0 | 0.0 | 0.00 | 0.00 | 0.00 | 81 | 1014.4 |
| 20260905125103 | 75 | 157 | 0.0 | 0.0 | 0.00 | 0.00 | 0.00 | 85 | 1014.1 |
| 20260905124144 | 75 | 180 | 1.0 | 3.0 | 0.00 | 0.00 | 0.00 | 87 | 1013.9 |
| 20260905123144 | 74 | 157 | 3.0 | 5.0 | 0.00 | 0.00 | 0.00 | 88 | 1013.8 |
| 20260905122243 | 74 | 157 | 0.0 | 2.0 | 0.00 | 0.00 | 0.00 | 88 | 1013.9 |
| 20260905121245 | 74 | 157 | 1.0 | 2.0 | 0.00 | 0.00 | 0.00 | 86 | 1013.9 |
| 20260905120259 | 74 | 180 | 1.0 | 4.0 | 0.00 | 0.00 | 0.00 | 87 | 1013.8 |
| 20260905115345 | 74 | 174 | 2.0 | 5.0 | 0.00 | 0.00 | 0.00 | 87 | 1013.6 |
| 20260905113443 | 74 | 157 | 3.0 | 6.0 | 0.00 | 0.00 | 0.00 | 88 | 1013.5 |
| 20260905112500 | 74 | 180 | 2.0 | 4.0 | 0.00 | 0.00 | 0.00 | 87 | 1013.8 |
| 20260905111445 | 74 | 187 | 1.0 | 4.0 | 0.00 | 0.00 | 0.00 | 86 | 1013.9 |
| 20260905110445 | 74 | 157 | 0.0 | 2.0 | 0.00 | 0.00 | 0.00 | 87 | 1013.8 |
| 20260905105544 | 74 | 157 | 1.0 | 3.0 | 0.00 | 0.00 | 0.00 | 86 | 1013.8 |
| 20260905104546 | 74 | 157 | 1.0 | 1.0 | 0.00 | 0.00 | 0.00 | 86 | 1013.9 |
| 20260905103546 | 74 | 157 | 0.0 | 0.0 | 0.00 | 0.00 | 0.00 | 85 | 1013.8 |
| 20260905102601 | 75 | 157 | 0.0 | 0.0 | 0.00 | 0.00 | 0.00 | 86 | 1013.7 |
| 20260905100644 | 75 | 157 | 0.0 | 0.0 | 0.00 | 0.00 | 0.00 | 85 | 1013.7 |
| 20260905095645 | 75 | 157 | 0.0 | 0.0 | 0.00 | 0.00 | 0.00 | 84 | 1013.5 |
| 20260905094644 | 75 | 157 | 0.0 | 0.0 | 0.00 | 0.00 | 0.00 | 83 | 1013.7 |
| 20260905092644 | 75 | 157 | 0.0 | 0.0 | 0.00 | 0.00 | 0.00 | 83 | 1013.8 |
| 20260905091743 | 76 | 157 | 0.0 | 0.0 | 0.00 | 0.00 | 0.00 | 81 | 1013.7 |
| 20260905090744 | 76 | 157 | 0.0 | 0.0 | 0.00 | 0.00 | 0.00 | 82 | 1013.5 |
| 20260905085842 | 76 | 157 | 1.0 | 1.0 | 0.00 | 0.00 | 0.00 | 81 | 1013.6 |
| 20260905084858 | 76 | 202 | 0.0 | 1.0 | 0.00 | 0.00 | 0.00 | 81 | 1013.6 |
| 20260905083845 | 77 | 202 | 1.0 | 2.0 | 0.00 | 0.00 | 0.00 | 79 | 1013.3 |
| 20260905082902 | 77 | 191 | 2.0 | 3.0 | 0.00 | 0.00 | 0.00 | 80 | 1013.2 |
| 20260905081845 | 77 | 187 | 2.0 | 4.0 | 0.00 | 0.00 | 0.00 | 79 | 1013.3 |
| 20260905080900 | 77 | 157 | 2.0 | 5.0 | 0.00 | 0.00 | 0.00 | 79 | 1013.3 |
| 20260905075902 | 78 | 157 | 2.0 | 4.0 | 0.00 | 0.00 | 0.00 | 78 | 1013.3 |
| 20260905074944 | 78 | 171 | 3.0 | 4.0 | 0.00 | 0.00 | 0.00 | 77 | 1013.2 |
| 20260905071942 | 78 | 158 | 4.0 | 6.0 | 0.00 | 0.00 | 0.00 | 75 | 1013.5 |
| 20260905070958 | 79 | 165 | 3.0 | 5.0 | 0.00 | 0.00 | 0.00 | 75 | 1013.4 |
| 20260905070042 | 79 | 162 | 3.0 | 6.0 | 0.00 | 0.00 | 0.00 | 74 | 1013.6 |
| 20260905063158 | 80 | 169 | 3.0 | 5.0 | 0.00 | 0.00 | 0.00 | 73 | 1013.8 |
| 20260905062245 | 80 | 174 | 2.0 | 5.0 | 0.00 | 0.00 | 0.00 | 72 | 1013.8 |
| 20260905061245 | 80 | 157 | 2.0 | 4.0 | 0.00 | 0.00 | 0.00 | 73 | 1013.8 |
| 20260905055345 | 81 | 168 | 2.0 | 5.0 | 0.00 | 0.01 | 0.00 | 71 | 1013.9 |
| 20260905053444 | 82 | 158 | 2.0 | 7.0 | 0.00 | 0.07 | 0.00 | 70 | 1013.5 |
| 20260905052543 | 82 | 169 | 4.0 | 5.0 | 0.00 | 0.09 | 0.00 | 68 | 1013.5 |
| 20260905051543 | 83 | 159 | 4.0 | 7.0 | 0.00 | 0.09 | 0.00 | 68 | 1013.3 |
| 20260905050544 | 83 | 159 | 7.0 | 9.0 | 0.00 | 0.09 | 0.00 | 67 | 1013.1 |
| 20260905045638 | 83 | 160 | 6.0 | 11.0 | 0.00 | 0.09 | 0.09 | 67 | 1013.3 |
| 20260905043823 | 84 | 158 | 6.0 | 10.0 | 0.00 | 0.09 | 0.09 | 65 | 1013.1 |
| 20260905042823 | 84 | 157 | 7.0 | 11.0 | 0.00 | 0.09 | 0.09 | 63 | 1013.2 |
| 20260905035823 | 86 | 157 | 9.0 | 12.0 | 0.00 | 0.09 | 0.09 | 59 | 1013.1 |
| 20260905034839 | 86 | 166 | 6.0 | 12.0 | 0.00 | 0.09 | 0.09 | 57 | 1013.2 |
| 20260905032924 | 87 | 156 | 6.0 | 8.0 | 0.00 | 0.09 | 0.09 | 55 | 1013.2 |
| 20260905031937 | 87 | 158 | 7.0 | 10.0 | 0.00 | 0.09 | 0.09 | 55 | 1013.3 |
| 20260905030923 | 87 | 152 | 6.0 | 8.0 | 0.00 | 0.09 | 0.09 | 56 | 1013.1 |
| 20260905030021 | 87 | 156 | 4.0 | 6.0 | 0.00 | 0.09 | 0.09 | 55 | 1012.8 |
| 20260905025024 | 88 | 152 | 5.0 | 8.0 | 0.00 | 0.09 | 0.09 | 55 | 1012.8 |
| 20260905024122 | 88 | 155 | 6.0 | 9.0 | 0.00 | 0.09 | 0.09 | 54 | 1012.7 |
| 20260905023123 | 88 | 156 | 7.0 | 10.0 | 0.00 | 0.09 | 0.09 | 53 | 1012.7 |
| 20260905022139 | 89 | 151 | 7.0 | 8.0 | 0.00 | 0.09 | 0.09 | 54 | 1012.4 |
| 20260905015223 | 90 | 148 | 5.0 | 6.0 | 0.00 | 0.09 | 0.09 | 52 | 1012.1 |
| 20260905014237 | 90 | 142 | 6.0 | 8.0 | 0.00 | 0.09 | 0.09 | 50 | 1012.0 |
| 20260905013322 | 91 | 155 | 5.0 | 7.0 | 0.00 | 0.09 | 0.09 | 50 | 1011.7 |
| 20260905012323 | 91 | 157 | 5.0 | 6.0 | 0.00 | 0.09 | 0.09 | 49 | 1011.7 |
| 20260905011325 | 92 | 149 | 6.0 | 7.0 | 0.00 | 0.09 | 0.09 | 48 | 1011.5 |
| 20260905010324 | 92 | 151 | 7.0 | 9.0 | 0.00 | 0.09 | 0.09 | 47 | 1011.4 |
| 20260905005421 | 93 | 145 | 7.0 | 9.0 | 0.00 | 0.09 | 0.09 | 45 | 1011.2 |
| 20260905004423 | 94 | 137 | 5.0 | 8.0 | 0.00 | 0.09 | 0.09 | 44 | 1011.1 |
| 20260905003437 | 95 | 158 | 5.0 | 6.0 | 0.00 | 0.09 | 0.09 | 42 | 1011.0 |
| 20260905002421 | 96 | 159 | 5.0 | 7.0 | 0.00 | 0.09 | 0.09 | 41 | 1011.0 |